Regional Weather Roundup
Issued by NWS Little Rock, AR

Home | Current Version | Previous Version | Graphics & Text | Print | Product List | Glossary On
Versions: 1 2 3 4 5 6 7 8 9 10 11 12 13 14 15 16 17 18 19 20 21 22 23 24 25 26 27 28 29 30 31 32 33 34 35 36 37 38 39 40 41 42 43 44 45 46 47 48 49 50
000
ASUS44 KLZK 191505
RWRLZK

WEATHER ROUNDUP FOR ARKANSAS
NATIONAL WEATHER SERVICE LITTLE ROCK AR
1000 AM CDT SUN OCT 19 2014

NOTE: "FAIR" INDICATES FEW OR NO CLOUDS BELOW 12,000 FEET WITH NO
SIGNIFICANT WEATHER AND/OR OBSTRUCTIONS TO VISIBILITY.

ARZ001-003-010-029-191600-
NORTHWEST ARKANSAS

CITY           SKY/WX    TMP DP  RH WIND       PRES   REMARKS
FAYETTEVILLE   MOSUNNY   54  49  83 CALM      30.22F
FORT SMITH     SUNNY     57  50  77 E9        30.23S
HARRISON       SUNNY     51  48  89 SE8       30.24S
BENTONVILLE    MOSUNNY   55  46  71 S7        30.22S
ROGERS         MOSUNNY   56  47  71 SE9       30.23S
SILOAM SPGS      N/A     54  43  66 S5        30.23S VSB 3/4
HIGHFILL       MOSUNNY   53  48  83 SE5       30.22R
SPRINGDALE     MOSUNNY   54  46  76 SE5       30.24S
$$

ARZ004-005-016-191600-
NORTH CENTRAL ARKANSAS

CITY           SKY/WX    TMP DP  RH WIND       PRES   REMARKS
BATESVILLE     MOSUNNY   55  46  71 CALM      30.27S
FLIPPIN        MOSUNNY   48  43  81 E3        30.26F
MTN HOME       FAIR      51  45  79 S8        30.25S
$$

ARZ040-041-191600-
WEST CENTRAL ARKANSAS

CITY           SKY/WX    TMP DP  RH WIND       PRES   REMARKS
MENA           SUNNY     55  50  82 CALM      30.23F
MOUNT IDA      SUNNY     57  52  83 CALM      30.22R
$$

ARZ009-017-025-026-028-191600-
NORTHEAST ARKANSAS

CITY           SKY/WX    TMP DP  RH WIND       PRES   REMARKS
CORNING        FAIR      54  46  76 SE7       30.28S
JONESBORO      SUNNY     55  46  71 E7        30.26S
NEWPORT        MOSUNNY   54  47  77 NE5       30.28S
WALNUT RIDGE   SUNNY     54  41  62 E5        30.26F
BLYTHEVILLE    SUNNY     58  46  64 SE6       30.27R
$$

ARZ022-023-033-042-044-191600-
CENTRAL ARKANSAS

CITY           SKY/WX    TMP DP  RH WIND       PRES   REMARKS
LITTLE ROCK    MOSUNNY   58  47  66 E7        30.25S
N LITTLE ROCK  MOSUNNY   59  49  70 E9        30.25S
JACKSONVILLE   SUNNY     57  48  70 E8        30.25S
SEARCY         MOSUNNY   55  48  77 E5        30.28R
HOT SPRINGS    SUNNY     57  49  74 VRB6      30.24S
RUSSELLVILLE   SUNNY     58  47  66 E7        30.25R
$$

ARZ036-191600-
EAST ARKANSAS

CITY           SKY/WX    TMP DP  RH WIND       PRES   REMARKS
WEST MEMPHIS   SUNNY     57  46  66 E7        30.24S
$$

ARZ050-053-066-070-073-191600-
SOUTHWEST ARKANSAS

CITY           SKY/WX    TMP DP  RH WIND       PRES   REMARKS
ARKADELPHIA    FAIR      58  51  77 E3        30.25R
CAMDEN         SUNNY     57  50  77 NE6       30.23S
TEXARKANA      SUNNY     57  51  80 VRB5      30.22R
EL DORADO      SUNNY     60  51  72 E6        30.22R
DE QUEEN       SUNNY     59  51  75 E8        30.21S
$$

ARZ056-057-069-191600-
SOUTHEAST ARKANSAS

CITY           SKY/WX    TMP DP  RH WIND       PRES   REMARKS
PINE BLUFF     SUNNY     57  47  69 E10       30.24S
STUTTGART      SUNNY     57  45  62 E9        30.25F
MONTICELLO     SUNNY     58  49  72 NE8       30.22S

$$





USA.gov is the U.S. government's official web portal to all federal, state and local government web resources and services.